#timestamp,LO_Frequency,Hit,StdDev 
1502276415.4,286047002.3,Y,0.0
1502276435.2,286047000.3,P,0.7
1502276455.1,286047001.0,N,0.6
1502276456.0,286047001.0,N,0.5
1502276475.8,286047000.3,N,0.5
1502276495.7,286047000.0,N,0.6
1502276515.5,286046999.9,N,0.6
1502276535.3,286047000.1,N,0.6
1502276555.2,286047002.4,Y,0.0
1502276575.0,286047000.5,P,0.0
1502276575.9,286047000.5,P,0.0
1502276595.8,286046999.7,P,0.4
1502276615.6,286047002.8,Y,0.0
1502276635.5,286047002.2,P,0.9
1502276655.3,286047002.2,N,0.9
1502276675.1,286047000.2,N,1.0
1502276695.9,286047000.0,N,1.0
1502276715.7,286046999.9,N,1.0
1502276735.6,286047002.7,N,1.1
1502276755.4,286047002.3,N,1.1
1502276775.2,286047002.6,N,1.2
1502276795.1,286047002.3,N,1.1
1502276796.0,286047002.3,N,1.1
1502276815.8,286047002.6,N,1.1
1502276835.7,286047002.2,N,1.1
1502276855.5,286047001.5,N,1.0
1502276875.3,286047002.5,N,1.0
1502276895.2,286047002.0,N,1.0
1502276915.0,286047001.9,N,1.0
1502276915.9,286047001.9,N,0.9
1502276935.7,286047001.5,N,0.9
1502276955.6,286047001.6,N,0.9
1502276975.4,286047002.1,N,0.9
1502276995.3,286047000.1,N,0.9
1502277015.1,286047001.5,N,0.9
1502277035.8,286047001.8,N,0.9
1502277055.7,286047002.1,N,0.9
1502277075.5,286047002.6,N,0.9
1502277095.4,286047001.5,N,0.8
1502277115.2,286047001.6,N,0.8
1502277135.0,286682707.5,Y,0.0
1502277135.9,286047002.0,P,0.1
1502277155.8,286047000.4,N,0.7
1502277175.6,286047001.2,N,0.6
1502277195.5,286047000.3,N,0.7
1502277215.3,286047000.2,N,0.7
1502277235.1,286047000.1,N,0.7
1502277255.9,286047000.5,N,0.7
1502277275.7,286047001.0,N,0.7
1502277295.5,286047001.1,N,0.6
1502277315.4,286047001.1,N,0.6
1502277335.2,286047001.0,N,0.6
1502277355.1,286047000.9,N,0.6
1502277356.0,286047000.9,N,0.5
1502277375.8,286047000.6,N,0.5
1502277395.7,286047001.1,N,0.5
1502277415.5,286046999.7,N,0.6
1502277435.3,286047000.0,N,0.6
1502277455.2,286047000.0,N,0.6
1502277475.0,286047000.3,N,0.6
1502277475.9,286047000.3,N,0.6
1502277495.8,286047002.5,Y,0.0
1502277515.6,286047000.2,P,0.2
1502277535.4,286047002.5,P,1.0
1502277555.3,286046999.8,N,1.0
1502277575.1,286047002.8,N,1.2
1502277595.9,286047000.3,N,1.2
1502277615.7,286047000.3,N,1.1
1502277635.5,286046999.9,N,1.1
1502277655.4,286047000.4,N,1.0
1502277675.2,286047000.2,N,1.0
1502277695.1,286047002.2,N,1.0
1502277696.0,286047002.2,N,1.1
1502277715.8,286047001.0,N,1.0
1502277735.6,286047000.0,N,1.0
1502277755.5,286047000.6,N,1.0
1502277775.3,286047001.2,N,1.0
1502277795.2,286047001.2,N,0.9
1502277815.9,286047002.4,N,1.0
1502277835.7,286047002.4,N,1.0
1502277855.6,286047002.8,N,1.0
1502277875.4,286047002.8,N,1.1
1502277895.3,286047002.5,N,1.1
1502277915.1,286047002.8,N,1.1
1502277916.0,286047002.8,N,1.1
1502277935.8,286047002.4,N,1.1
1502277955.7,286047002.0,N,1.1
1502277975.5,286047001.3,N,1.1
1502277995.4,286047002.7,N,1.1
1502278015.2,286047002.0,N,1.1
1502278035.0,286047002.7,N,1.1
1502278035.9,286047002.7,N,1.1
1502278055.8,286047000.1,N,1.1
1502278075.6,286047002.7,N,1.1
1502278095.5,286047001.9,N,1.0
1502278115.3,286047002.3,N,1.0
1502278135.1,286047002.2,N,1.0
1502278155.9,286047002.4,N,1.0
1502278175.7,286047004.4,Y,0.0
1502278195.6,286047000.5,P,0.7
1502278215.4,286047001.0,N,0.5
1502278235.2,286046998.5,N,1.2
1502278255.1,286046998.5,N,1.3
1502278256.0,286046998.5,N,1.4
1502278275.8,286046998.7,N,1.3
1502278295.7,286046998.6,N,1.3
1502278315.5,286047001.0,N,1.3
1502278335.3,286047000.6,N,1.3
1502278355.2,286047000.8,N,1.2
1502278375.0,286046998.5,N,1.2
1502278375.9,286046998.5,N,1.2
1502278395.8,286046998.7,N,1.2
1502278415.6,286047001.2,N,1.2
1502278435.4,286047001.1,N,1.3
1502278455.3,286047000.6,N,1.2
1502278475.1,286047000.9,N,1.2
1502278495.9,286047000.9,N,1.2
1502278515.7,286047000.3,N,1.2
1502278535.5,286047001.0,N,1.2
1502278555.4,286047000.9,N,1.2
1502278575.2,286047001.1,N,1.2
1502278595.1,286047000.7,N,1.1
1502278596.0,286047000.7,N,1.1
1502278615.8,286046998.3,N,1.2
1502278635.6,286047000.8,N,1.1
1502278655.5,286046998.6,N,1.2
1502278675.3,286047001.2,N,1.2
1502278695.2,286047000.1,N,1.1
1502278715.9,286047002.3,N,1.2
1502278735.7,286047002.6,N,1.2
1502278755.6,286047000.2,N,1.2
1502278775.4,286047000.3,N,1.2
1502278795.2,286047000.0,N,1.2
1502278815.1,286046998.1,N,1.2
1502278816.0,286046998.1,N,1.2
1502278835.8,286047000.6,N,1.2
1502278855.7,286046999.9,N,1.2
1502278875.5,286046999.9,N,1.2
1502278895.3,286047002.4,N,1.2
1502278915.2,286047002.5,N,1.2
1502278935.0,286047002.7,N,1.3
1502278935.9,286047002.7,N,1.3
1502278955.8,286046999.9,N,1.3
1502278975.6,286047000.1,N,1.3
1502278995.4,286047000.2,N,1.3
1502279015.3,286046999.7,N,1.3
1502279035.1,286046999.8,N,1.3
1502279055.9,286047002.8,N,1.3
1502279075.7,286047001.8,N,1.4
1502279095.5,286047001.9,N,1.4
1502279115.4,286047002.3,N,1.4
1502279135.2,286046999.7,N,1.4
1502279155.1,286047001.1,N,1.4
1502279156.0,286047001.1,N,1.4
1502279175.8,286047000.8,N,1.4
1502279195.6,286047000.9,N,1.3
1502279215.5,286047000.3,N,1.3
1502279235.3,286047002.2,N,1.3
1502279255.2,286046999.7,N,1.3
1502279275.9,286047002.8,N,1.3
1502279295.7,286046999.7,N,1.3
1502279315.6,286047002.5,N,1.3
1502279335.4,286047000.3,N,1.3
1502279355.3,286047000.1,N,1.3
1502279375.1,286047000.0,N,1.1
1502279376.0,286047000.0,N,1.2
1502279395.8,286047000.9,N,1.1
1502279415.7,286046999.9,N,1.1
1502279435.5,286046998.2,N,1.2
1502279455.4,286046998.1,N,1.3
1502279475.2,286047000.7,N,1.2
1502279495.0,286047001.1,N,1.2
1502279495.9,286047001.1,N,1.2
1502279515.8,286046998.5,N,1.2
1502279535.6,286047001.1,N,1.2
1502279555.5,286046998.6,N,1.3
1502279575.3,286046999.3,N,1.3
1502279595.1,286046998.8,N,1.3
1502279615.9,286046998.5,N,1.3
1502279635.7,286046998.3,N,1.3
1502279655.6,286046998.4,N,1.3
1502279675.4,286046998.7,N,1.3
1502279695.2,286046998.3,N,1.3
1502279715.1,286046998.8,N,1.3
1502279716.0,286046998.8,N,1.3
1502279735.8,286046998.9,N,1.3
1502279755.7,286046998.8,N,1.3
1502279775.5,286046999.0,N,1.2
1502279795.3,286046999.6,N,1.2
1502279815.2,286046997.0,N,1.2
1502279835.0,286041414.5,Y,0.0
1502279835.9,286046995.4,P,2.0
1502279855.8,286046997.2,N,1.6
1502279875.6,286046996.9,N,1.4
1502279895.4,286046995.3,Y,0.0
1502279915.3,286046999.3,P,1.0
1502279935.1,286047001.2,N,1.6
1502279955.9,286046998.8,N,1.4
1502279975.7,286046997.7,N,1.4
1502279995.5,286046997.1,N,1.4
